TimeCST,TemperatureF,Dew PointF,Humidity,Sea Level PressureIn,VisibilityMPH,Wind Direction,Wind SpeedMPH,Gust SpeedMPH,PrecipitationIn,Events,Conditions,WindDirDegrees,DateUTC
12:15 AM,14.0,7.9,77,30.37,10.0,NW,3.5,-,N/A,,Clear,320,2013-01-18 06:15:00
12:35 AM,13.8,7.7,77,30.37,10.0,Calm,Calm,-,N/A,,Clear,0,2013-01-18 06:35:00
12:55 AM,13.8,7.5,76,30.36,10.0,Calm,Calm,-,N/A,,Clear,0,2013-01-18 06:55:00
1:15 AM,11.8,6.6,80,30.36,10.0,Calm,Calm,-,N/A,,Scattered Clouds,0,2013-01-18 07:15:00
1:35 AM,12.9,8.4,82,30.36,10.0,Calm,Calm,-,N/A,,Mostly Cloudy,0,2013-01-18 07:35:00
1:55 AM,14.0,9.1,81,30.37,10.0,Calm,Calm,-,N/A,,Scattered Clouds,0,2013-01-18 07:55:00
2:15 AM,14.0,9.5,82,30.38,10.0,Calm,Calm,-,N/A,,Clear,0,2013-01-18 08:15:00
2:35 AM,14.2,9.9,83,30.38,10.0,SSW,3.5,-,N/A,,Scattered Clouds,210,2013-01-18 08:35:00
2:55 AM,14.7,9.9,81,30.38,10.0,Calm,Calm,-,N/A,,Overcast,0,2013-01-18 08:55:00
3:15 AM,14.9,10.0,81,30.37,10.0,Calm,Calm,-,N/A,,Overcast,0,2013-01-18 09:15:00
3:35 AM,14.9,10.4,82,30.36,10.0,Calm,Calm,-,N/A,,Overcast,0,2013-01-18 09:35:00
3:55 AM,15.3,10.0,80,30.35,10.0,Calm,Calm,-,N/A,,Overcast,0,2013-01-18 09:55:00
4:15 AM,15.4,10.4,80,30.34,10.0,SE,3.5,-,N/A,,Overcast,130,2013-01-18 10:15:00
4:35 AM,15.3,10.2,80,30.33,10.0,SE,3.5,-,N/A,,Overcast,140,2013-01-18 10:35:00
4:55 AM,15.8,10.6,80,30.30,10.0,SE,6.9,-,N/A,,Overcast,140,2013-01-18 10:55:00
5:15 AM,16.0,9.9,77,30.30,10.0,ESE,4.6,-,N/A,,Overcast,120,2013-01-18 11:15:00
5:35 AM,16.5,9.5,74,30.30,10.0,SE,5.8,-,N/A,,Overcast,130,2013-01-18 11:35:00
6:35 AM,17.2,10.9,76,30.27,10.0,SE,5.8,-,N/A,,Overcast,140,2013-01-18 12:35:00
6:55 AM,17.6,11.3,76,30.27,10.0,SSE,6.9,-,N/A,,Overcast,150,2013-01-18 12:55:00
7:15 AM,18.1,12.2,78,30.26,10.0,SSE,6.9,-,N/A,,Overcast,150,2013-01-18 13:15:00
7:35 AM,18.5,12.7,78,30.25,10.0,SE,6.9,-,N/A,,Overcast,140,2013-01-18 13:35:00
7:55 AM,19.2,13.1,77,30.24,10.0,SSE,8.1,-,N/A,,Overcast,160,2013-01-18 13:55:00
8:15 AM,19.9,13.6,77,30.21,10.0,SSE,8.1,16.1,N/A,,Overcast,150,2013-01-18 14:15:00
8:35 AM,20.8,14.9,78,30.19,10.0,SSE,10.4,16.1,N/A,,Overcast,160,2013-01-18 14:35:00
8:55 AM,22.6,16.2,76,30.18,10.0,South,11.5,16.1,N/A,,Overcast,170,2013-01-18 14:55:00
9:15 AM,24.8,17.8,75,30.17,10.0,South,13.8,19.6,N/A,,Overcast,180,2013-01-18 15:15:00
9:35 AM,26.6,18.5,71,30.15,10.0,South,17.3,23.0,N/A,,Overcast,180,2013-01-18 15:35:00
9:55 AM,28.4,19.9,71,30.14,10.0,South,15.0,23.0,N/A,,Overcast,180,2013-01-18 15:55:00
10:15 AM,29.7,20.7,69,30.10,10.0,South,17.3,25.3,N/A,,Mostly Cloudy,180,2013-01-18 16:15:00
10:35 AM,31.3,21.7,68,30.08,10.0,South,16.1,25.3,N/A,,Scattered Clouds,190,2013-01-18 16:35:00
10:55 AM,33.3,23.4,67,30.06,10.0,South,18.4,26.5,N/A,,Clear,190,2013-01-18 16:55:00
11:15 AM,34.9,24.3,65,30.03,10.0,SSW,26.5,35.7,N/A,,Clear,200,2013-01-18 17:15:00
11:35 AM,35.1,24.8,66,30.02,10.0,SSW,17.3,31.1,N/A,,Clear,200,2013-01-18 17:35:00
11:55 AM,35.8,25.5,66,30.00,10.0,SSW,17.3,28.8,N/A,,Clear,210,2013-01-18 17:55:00
12:15 PM,37.2,26.4,65,29.96,10.0,SSW,20.7,27.6,N/A,,Clear,210,2013-01-18 18:15:00
12:35 PM,37.4,26.6,65,29.95,10.0,SSW,27.6,36.8,N/A,,Clear,210,2013-01-18 18:35:00
12:55 PM,38.5,27.3,64,29.93,10.0,SSW,21.9,36.8,N/A,,Clear,200,2013-01-18 18:55:00
1:15 PM,38.1,27.5,66,29.92,10.0,SSW,24.2,31.1,N/A,,Clear,200,2013-01-18 19:15:00
1:35 PM,39.4,28.6,65,29.91,10.0,SSW,21.9,31.1,N/A,,Clear,200,2013-01-18 19:35:00
1:55 PM,38.1,28.2,68,29.89,10.0,SSW,18.4,28.8,N/A,,Clear,210,2013-01-18 19:55:00
2:15 PM,38.5,28.9,69,29.88,10.0,SSW,15.0,25.3,N/A,,Clear,210,2013-01-18 20:15:00
2:35 PM,40.3,29.8,66,29.87,10.0,SSW,21.9,31.1,N/A,,Clear,210,2013-01-18 20:35:00
2:55 PM,40.1,29.7,66,29.86,10.0,SSW,20.7,28.8,N/A,,Clear,210,2013-01-18 20:55:00
3:15 PM,40.3,29.8,66,29.85,10.0,SSW,17.3,31.1,N/A,,Clear,210,2013-01-18 21:15:00
3:35 PM,40.5,30.2,67,29.84,10.0,SSW,20.7,26.5,N/A,,Clear,210,2013-01-18 21:35:00
3:55 PM,40.1,30.2,68,29.84,10.0,SSW,19.6,32.2,N/A,,Clear,210,2013-01-18 21:55:00
4:15 PM,39.4,30.4,70,29.84,10.0,SSW,20.7,28.8,N/A,,Clear,210,2013-01-18 22:15:00
4:35 PM,38.8,30.6,72,29.84,10.0,SSW,16.1,24.2,N/A,,Clear,210,2013-01-18 22:35:00
4:55 PM,38.5,30.6,73,29.84,10.0,SSW,16.1,23.0,N/A,,Clear,210,2013-01-18 22:55:00
5:15 PM,38.5,30.7,74,29.84,10.0,SSW,13.8,18.4,N/A,,Clear,210,2013-01-18 23:15:00
5:35 PM,38.5,30.9,74,29.84,10.0,SSW,16.1,19.6,N/A,,Clear,210,2013-01-18 23:35:00
5:55 PM,38.5,31.1,75,29.84,10.0,SSW,16.1,20.7,N/A,,Clear,210,2013-01-18 23:55:00
6:15 PM,38.7,31.1,74,29.83,10.0,SSW,16.1,23.0,N/A,,Clear,210,2013-01-19 00:15:00
6:35 PM,39.0,31.5,74,29.83,10.0,SSW,15.0,-,N/A,,Clear,210,2013-01-19 00:35:00
6:55 PM,38.7,31.6,76,29.83,10.0,SSW,13.8,-,N/A,,Clear,210,2013-01-19 00:55:00
7:15 PM,39.2,31.6,74,29.83,10.0,SSW,13.8,20.7,N/A,,Clear,210,2013-01-19 01:15:00
7:35 PM,38.5,31.6,76,29.83,10.0,SSW,12.7,19.6,N/A,,Clear,210,2013-01-19 01:35:00
7:55 PM,39.2,31.6,74,29.82,10.0,SSW,16.1,21.9,N/A,,Clear,210,2013-01-19 01:55:00
8:15 PM,39.6,31.6,73,29.81,10.0,SW,18.4,25.3,N/A,,Clear,220,2013-01-19 02:15:00
8:35 PM,39.4,31.5,73,29.81,10.0,SW,17.3,23.0,N/A,,Clear,220,2013-01-19 02:35:00
8:55 PM,39.4,31.6,74,29.81,10.0,SW,17.3,27.6,N/A,,Clear,220,2013-01-19 02:55:00
9:35 PM,38.3,31.3,76,29.81,10.0,SW,13.8,20.7,N/A,,Clear,220,2013-01-19 03:35:00
9:55 PM,38.3,31.3,76,29.80,10.0,SW,13.8,18.4,N/A,,Clear,220,2013-01-19 03:55:00
10:15 PM,38.5,31.5,76,29.80,10.0,SW,13.8,-,N/A,,Clear,230,2013-01-19 04:15:00
10:35 PM,38.3,31.1,75,29.80,10.0,SW,12.7,19.6,N/A,,Clear,230,2013-01-19 04:35:00
10:55 PM,38.1,31.1,76,29.80,10.0,SW,11.5,-,N/A,,Clear,230,2013-01-19 04:55:00
11:15 PM,37.8,31.1,77,29.80,10.0,SW,10.4,-,N/A,,Clear,230,2013-01-19 05:15:00
11:35 PM,37.0,31.1,79,29.80,10.0,SW,8.1,-,N/A,,Clear,220,2013-01-19 05:35:00
11:55 PM,36.0,30.9,82,29.81,10.0,SW,5.8,-,N/A,,Clear,230,2013-01-19 05:55:00